Weather Service Report


761 
ASUS42 KTBW 271017
RWRFL 
FLORIDA REGIONAL WEATHER ROUNDUP
NATIONAL WEATHER SERVICE TAMPA BAY RUSKIN FL
600 AM EDT TUE SEP 27 2016

NOTE: "FAIR" INDICATES FEW OR NO CLOUDS BELOW 12,000 FEET WITH NO
SIGNIFICANT WEATHER AND/OR OBSTRUCTIONS TO VISIBILITY.

FLZ001>010-012>015-112-114-115-271100-
PANHANDLE FLORIDA
  
CITY           SKY/WX    TMP DP  RH WIND       PRES   REMARKS
PENSACOLA      CLEAR     73  70  90 CALM      29.93R                  
PENSACOLA NAS  CLEAR     72  71  97 N3        29.93R                  
CRESTVIEW      CLEAR     67  65  93 CALM      29.96R                  
DUKE FIELD     FAIR      67  66  96 CALM      29.93S                  
VALPARAISO     CLEAR     69  67  93 CALM      29.93S                  
MARY ESTHER    CLEAR     69  68  97 NE3       29.93R                  
TRI COUNTY     FAIR      67  66  97 CALM      29.96R                  
PANAMA CITY    NOT AVBL                                               
TYNDALL AFB    CLEAR     72  70  93 NE3       29.93S                  
APALACHICOLA   CLEAR     71  71 100 E3        29.92S                  

STATION/POSITION SKY/WX   TEMP    WIND        PRES    WAVE   SWELL
                          AIR SEA DIR/SP/G            HT/PER HT/PER
                          (F)     (DEG/KT/KT) (MB)    (FT/S) (FT/S)
30.1N   87.6W              81 85   30/  2/  2 1013.2S   1
29.2N   88.2W              82 85  220/  2/  2 1013.0F
28.8N   86.0W              82 85              1013.4F   1
PANAMA CITY BEAC           72 86   30/  2/  4 1013.9F
TOWER C                    79      80/  2/  5 1013.7F
28.5N   84.5W              83 85  330/  6/  8 1012.9R   0

$$
FLZ011-016>038-118-127-128-134-139-239-271100-
NORTH FLORIDA
  
CITY           SKY/WX    TMP DP  RH WIND       PRES   REMARKS
MARIANNA       CLEAR     69  69 100 SW3       29.94R                  
TALLAHASSEE    CLEAR     72  70  93 NW3       29.94S                  
PERRY          CLEAR     70  69  95 CALM      29.93F                  
CROSS CITY     CLEAR     70  70 100 CALM      29.92S                  
LAKE CITY      MOCLDY    68  68 100 CALM      29.93S                  
GAINESVILLE    CLEAR     70  68  93 CALM      29.91F                  
WILLISTON      CLEAR     68  68 100 CALM      29.92S                  
PALATKA        FAIR      70  70 100 CALM      29.92S FOG              
MAYPORT NAS    PTCLDY    73  72  96 NW5       29.91S                  
JACKSONVILLE   PTCLDY    70  70 100 N8        29.91S                  
JAX NAS        PTCLDY    75  71  87 NW7       29.92R                  
FERNANDINA BEA FAIR      73  73 100 NW6       29.90S                  
ST AUGUSTINE   FOG       73  72  94 SW5       29.92S VSB 1/2          

STATION/POSITION SKY/WX   TEMP    WIND        PRES    WAVE   SWELL
                          AIR SEA DIR/SP/G            HT/PER HT/PER
                          (F)     (DEG/KT/KT) (MB)    (FT/S) (FT/S)
SHELL POINT                72      10/  4/  5 1012.5
KEATON BEACH               71      40/  3/  5 1012.9F
CEDAR KEY                  74      20/  3/  4 1013.4S
FERNANDINA                 76 84  300/  3/  6 1012.8F
30.7N   81.3W                 82                N/A     3/ 5
MAYPORT                    74 84  330/  4/  6 1013.1S
31.4N   80.9W              77 81   40/  8/ 10 1012.1F   3/ 5   2/ 5
ST AUGUSTINE               73 83  290/  4/  5 1013.7F

$$
FLZ040-043>046-052-053-057-058-063-144-271100-
INTERIOR CENTRAL FLORIDA
  
CITY           SKY/WX    TMP DP  RH WIND       PRES   REMARKS
OCALA          CLEAR     68  66  94 NW3       29.92S                  
THE VILLAGES     N/A     70  70 100 CALM      29.82S                  
LEESBURG       CLEAR     72  67  84 CALM      29.92S                  
SANFORD        CLEAR     73  68  84 CALM      29.91S                  
ORLANDO EXEC   CLEAR     73  70  90 NW3       29.91S                  
ORLANDO INTL   PTCLDY    71  70  96 CALM      29.91F                  
KISSIMMEE      CLEAR     71  70  96 CALM      29.92S                  
WINTER HAVEN   PTCLDY    72  68  87 CALM      29.93S                  
LAKELAND       CLEAR     70  70 100 CALM      29.93R                  
BARTOW         FAIR      68 N/A N/A CALM      29.93R                  
OKEECHOBEE     CLOUDY    70  70 100 CALM      29.92F                  

$$
FLZ041-047-054-059-064-141-147-271100-
EAST CENTRAL FLORIDA
  
CITY           SKY/WX    TMP DP  RH WIND       PRES   REMARKS
DAYTONA BEACH  PTCLDY    71  69  93 W3        29.91F                  
DELAND         CLEAR     73  70  88 CALM      29.91S                  
JFK SPACE CTR  MOCLDY    71  69  95 CALM      29.90S                  
CAPE CANAVERAL CLEAR     73  71  92 W6        29.90R                  
PATRICK AFB    CLEAR     76  72  87 W5        29.91R                  
MELBOURNE      CLEAR     72  71  97 CALM      29.91S                  
VERO BEACH     CLOUDY    73  71  93 CALM      29.92R                  
FT PIERCE      MOCLDY    73  72  96 CALM      29.91S                  
STUART         CLOUDY    79  72  78 CALM      29.92S                  

STATION/POSITION SKY/WX   TEMP    WIND        PRES    WAVE   SWELL
                          AIR SEA DIR/SP/G            HT/PER HT/PER
                          (F)     (DEG/KT/KT) (MB)    (FT/S) (FT/S)
28.5N   80.2W              80 84  280/  8/ 10 1012.8F
TRIDENT PIER               75 85  270/  4/  6 1013.0F
28.4N   80.5W                 85                N/A     1/ 9
27.5N   80.2W                 84                N/A     2/ 9

$$
FLZ050-056-061-142-242-148-248-149-249-151-251-155-255-
160-260-271100-
WEST CENTRAL FLORIDA
  
CITY           SKY/WX    TMP DP  RH WIND       PRES   REMARKS
CRYSTAL RIVER  FAIR      68  68 100 CALM      29.92S                  
INVERNESS      FAIR      68  68 100 CALM      29.92F                  
BROOKSVILLE    CLEAR     69  68  96 CALM      29.92S                  
CLEARWATER AIR FAIR      72  72 100 CALM      29.92R                  
ST PETE CLEARW CLEAR     74  74 100 S3        29.92R                  
TAMPA INTL     PTCLDY    76  71  85 SE5       29.92S                  
TAMPA EXEC     CLEAR     72  68  88 CALM      29.93R                  
PLANT CITY     CLEAR     72  70  94 CALM      29.94S                  
MACDILL AFB    CLEAR     73  73 100 NE3       29.92R                  
PETER O KNIGHT CLEAR     77  73  88 CALM      29.93R                  
ST PETERSBURG  CLEAR     77  73  87 CALM      29.90S                  
SARASOTA       CLOUDY    74  70  87 SE5       29.91S                  
VENICE         FAIR      73  72  94 CALM      29.93S                  

STATION/POSITION SKY/WX   TEMP    WIND        PRES    WAVE   SWELL
                          AIR SEA DIR/SP/G            HT/PER HT/PER
                          (F)     (DEG/KT/KT) (MB)    (FT/S) (FT/S)
27.3N   84.2W                 85                N/A     2/ 6
CLEARWATER BEACH           78 86   80/  4/  6 1013.2S
MIDDLE TAMPA BAY                  160/  5/  6 1013.4F
VENICE                     76 87  100/  4/  4 1013.1R

$$
FLZ066-069-070-075>078-162-262-165-265-271100-
SOUTHWEST FLORIDA AND KEYS
  
CITY           SKY/WX    TMP DP  RH WIND       PRES   REMARKS
PUNTA GORDA    CLOUDY    73  72  96 CALM      29.94R                  
FT MYERS       PTCLDY    74  70  87 CALM      29.91S                  
SOUTHWEST INTL PTCLDY    74  69  85 CALM      29.92S                  
NAPLES         CLOUDY    75  71  87 E3        29.92R                  
MARATHON       CLOUDY    81  74  79 S8        29.91S                  
KEY WEST NAS   CLOUDY    81  73  76 S10       29.90F                  
KEY WEST INTL  CLOUDY    83  76  79 S9        29.90F                  

STATION/POSITION SKY/WX   TEMP    WIND        PRES    WAVE   SWELL
                          AIR SEA DIR/SP/G            HT/PER HT/PER
                          (F)     (DEG/KT/KT) (MB)    (FT/S) (FT/S)
NAPLES                        86              1012.9S
26.0N   85.6W              83 85  220/  6/  8 1013.1F   1/ 3
DRY TORTUGAS               83     170/  5/  7 1012.8R
SAND KEY                   82                 1013.0F
LONG KEY                   82 84  180/  8/  9 1013.3F

$$
FLZ067-068-071>074-168-172>174-271100-
SOUTHEAST FLORIDA 
  
CITY           SKY/WX    TMP DP  RH WIND       PRES   REMARKS
W PALM BEACH   CLOUDY    78  74  87 CALM      29.92S                  
FT LAUDER-EXEC CLOUDY    77  74  90 CALM      29.92R                  
FT LAUDERDALE  CLOUDY    79  75  87 CALM      29.91F                  
POMPANO BEACH  CLOUDY    78  75  90 CALM      29.92R                  
PEMBROKE PINES CLOUDY    77  74  90 CALM      29.93S                  
OPA LOCKA      CLOUDY    77  75  93 CALM      29.92F                  
MIAMI          CLOUDY    78  76  93 CALM      29.92S                  
WEST KENDALL   CLOUDY    75  75 100 CALM      29.92S                  
HOMESTEAD      CLOUDY    77  74  91 CALM      29.92R                  

STATION/POSITION SKY/WX   TEMP    WIND        PRES    WAVE   SWELL
                          AIR SEA DIR/SP/G            HT/PER HT/PER
                          (F)     (DEG/KT/KT) (MB)    (FT/S) (FT/S)
PORT EVERGLADES            80     260/  4/  5 1013.1R
VIRGINIA KEY               80 90   10/  2/  2 1013.4F
LAKE WORTH                        260/  4/  5   N/A
FOWEY ROCKS                81 85  280/  2/  2 1013.8R
SETTLEMENT POINT           83     260/  5/  6 1013.8R

$$

  

Return to Home page


Western Regional Climate Center, wrcc@dri.edu